Regional Weather Roundup
Issued by NWS

Home | Current Version | Previous Version | Text Only | Print | Product List | Glossary On
Versions: 1 2 3 4 5 6 7 8 9 10 11 12 13 14 15 16 17 18 19 20 21 22 23 24 25 26 27 28 29 30 31 32 33 34 35 36 37 38 39 40 41 42 43 44 45 46 47 48 49 50
753
ASUS44 KJAN 171803
RWRMS

MISSISSIPPI HOURLY WEATHER ROUNDUP
NATIONAL WEATHER SERVICE JACKSON MS
100 PM CDT FRI APR 17 2015

NOTE: "FAIR: INDICATES FEW OR NO CLOUDS BELOW 12,000 FEET WITH NO
SIGNIFICANT WEATHER AND/OR OBSTRUCTIONS TO VISIBILITY.

MSZ001>002-007>008-010>013-018>021-025>028-034>036-171900-
NORTHWEST MISSISSIPPI

CITY           SKY/WX    TMP DP  RH WIND       PRES   REMARKS
CLARKSDALE       N/A     70  70 100 CALM      30.05F
CLEVELAND      CLOUDY    70  69  96 E6        30.03F
GREENWOOD      HVY RAIN  66  63  90 N14G24    30.02R FOG
6HR MIN TEMP:  67; 6HR MAX TEMP:  71; 6HR PCP:  0.10;

GREENVILLE     CLOUDY    72  66  81 NE13      30.03S
6HR MIN TEMP:  66; 6HR MAX TEMP:  73; 6HR PCP:  0.01;

OLIVE BRANCH   CLOUDY    64  64 100 SE7       30.07F
OXFORD         CLOUDY    63  63 100 E7        30.08S FOG
TUNICA         LGT RAIN  68  66  94 CALM      30.05F
$$

MSZ003>006-009-014>017-022>024-029>033-037>039-171900-
NORTHEAST MISSISSIPPI

CITY           SKY/WX    TMP DP  RH WIND       PRES   REMARKS
COLUMBUS AFB   RAIN      64  64 100 NE6       30.06F FOG
CORINTH        CLOUDY    66  59  77 SE5       30.07F
GOLDN TRIANGLE CLOUDY    64  63  94 NE7       30.05F FOG
STARKVILLE     LGT RAIN  64  63  94 NE6       30.04F
TUPELO         HVY RAIN  63  61  93 SE6       30.08F FOG
6HR MIN TEMP:  63; 6HR MAX TEMP:  64; 6HR PCP:  1.11;

$$

MSZ040-058-171900-
CENTRAL MISSISSIPPI

CITY           SKY/WX    TMP DP  RH WIND       PRES   REMARKS
JACKSON INTL   PTSUNNY   75  66  73 E5        29.99F
6HR MIN TEMP:  67; 6HR MAX TEMP:  76; 6HR PCP: TRACE;

JACKSON HAWKNS PTSUNNY   75  66  73 S6        30.00F
6HR MIN TEMP:  66; 6HR MAX TEMP:  76; 6HR PCP: TRACE;

MERIDIAN KEY   PTSUNNY   74  63  68 VRB3      30.01F
6HR MIN TEMP:  64; 6HR MAX TEMP:  74; 6HR PCP:  0.42;

MERIDIAN NAS   CLOUDY    71  64  78 E9        30.02F
6HR MIN TEMP:  64; 6HR MAX TEMP:  71; 6HR PCP:  0.27;

RAYMOND        FAIR      77  72  83 S5        29.99F
VICKSBURG      PTSUNNY   77  65  66 S7        29.99F
6HR MIN TEMP:  63; 6HR MAX TEMP:  79;

$$

MSZ059>079-171900-
SOUTH MISSISSIPPI

CITY           SKY/WX    TMP DP  RH WIND       PRES   REMARKS
BROOKHAVEN     MOCLDY   N/A N/A N/A SW3       30.01F
HATTIESBURG    CLOUDY    79  68  69 CALM      29.99F
6HR MIN TEMP:  70; 6HR MAX TEMP:  79;

MCCOMB         MOSUNNY   79  68  69 VRB5      29.99F
6HR MIN TEMP:  67; 6HR MAX TEMP:  79;

NATCHEZ        PTSUNNY   77  66  69 SW5       30.00F
6HR MIN TEMP:  64; 6HR MAX TEMP:  79;

PINE BELT      CLOUDY    77  70  78 N5        30.00F
6HR MIN TEMP:  68; 6HR MAX TEMP:  77;

$$

MSZ080>082-171900-
COASTAL MISSISSIPPI

CITY           SKY/WX    TMP DP  RH WIND       PRES   REMARKS
BAY ST LOUIS   RAIN      79  68  69 MISG      29.99F
BILOXI         NOT AVBL
PASCAGOULA     CLOUDY    74  72  93 SW6       29.97F
6HR MIN TEMP:  71; 6HR MAX TEMP:  75; 6HR PCP: TRACE;

GULFPORT       CLOUDY    75  71  87 SW9G18    29.97F
6HR MIN TEMP:  72; 6HR MAX TEMP:  75; 6HR PCP:  0.11;

$$



USA.gov is the U.S. government's official web portal to all federal, state and local government web resources and services.